STARLINK-6109 (56094 NORAD) Tracking and Keplerian Element Data

This shows tracking and keplerian element data for the satellite.

Feedback or suggestion? Click here.




ElementValue
Catalog56094
NameSTARLINK-6109
Epoch Orbit652
Epoch Day127.25001157
Epoch Year2023
RAAN37.9836
Inclination43.0008
Eccentricity0.0001503
Argument of Perigee273.7716
Mean Anonmoly30.958
Mean Motion15.27563841
Decay Rate-0.00911676
L11 56094U 23046B 23127.25001157 -.00911676 00000+0 -35711-1 0 9994
L22 56094 43.0008 37.9836 0001503 273.7716 30.9580 15.27563841 6529



Live tracking and technical data element details for STARLINK-6109 (NORAD 56094). STARLINK-6109 can be tracked NOW for your location showing map with azimuth and elevation plus other details from your city location.







IsCatalogInMostPopularTable: catalog: 56094, numindb: -1

Insert: records affected: 1


GetName: 56094 STARLINK-6109

Hit Count: inserted at: Mon, 05 Jun 2023 00:40:09 GMT